Location: Newark
(43.0000°N, 1.6781°W)
Time: 07:17:31
(UTC+00:00)

Courier 1B Rocket - Pass Details

Date: 21 April 2021
Orbit: 920 x 1202 km, 28.2° (Epoch: 09 May)

Event Time Altitude Azimuth Distance (km) Brightness Sun altitude
Rises 19:43:22 0° 231° (SW) 3,660 8.4 -8.8°
Reaches altitude 10° 19:46:38 10° 216° (SW) 2,759 7.5 -9.3°
Maximum altitude 19:51:27 21° 169° (S) 2,135 6.5 -10.1°
Enters shadow 19:55:35 13° 129° (SE) 2,691 6.7 -10.8°
